KF5PJP Weather Reports


Display with metric or nautical units.
time (UTC)temp
F
wind
direction
speed
MPH
gust
MPH
rain 1hr
in
rain 24hr
in
rain mn
in
humidity
%
barometer
mb
20260506132401 60 247 0.0 4.0 0.00 0.00 0.00 89 1010.8
20260506131934 60 211 1.0 4.0 0.00 0.00 0.00 88 1010.8
20260506131359 61 146 0.0 3.0 0.00 0.00 0.00 88 1010.8
20260506130353 61 197 0.0 3.0 0.00 0.00 0.00 89 1010.6
20260506125926 61 142 1.0 3.0 0.00 0.00 0.00 89 1010.6
20260506124902 62 134 1.0 4.0 0.00 0.00 0.00 88 1010.4
20260506124441 62 227 1.0 4.0 0.00 0.00 0.00 88 1010.3
20260506123858 62 105 1.0 3.0 0.00 0.00 0.00 88 1010.2
20260506123413 63 139 0.0 2.0 0.00 0.00 0.00 88 1010.1
20260506122851 63 252 0.0 0.0 0.00 0.00 0.00 88 1009.9
20260506122410 63 241 0.0 2.0 0.00 0.00 0.00 88 1009.9
20260506121354 64 135 1.0 2.0 0.00 0.00 0.00 87 1009.8
20260506120923 64 138 0.0 2.0 0.00 0.00 0.00 87 1009.7
20260506115918 64 124 0.0 1.0 0.00 0.00 0.00 86 1009.5
20260506114904 65 135 0.0 2.0 0.00 0.00 0.00 85 1009.4
20260506113849 66 202 0.0 1.0 0.00 0.00 0.00 83 1009.1
20260506112904 67 142 0.0 3.0 0.00 0.00 0.00 82 1009.1
20260506112433 68 232 0.0 2.0 0.00 0.00 0.00 81 1009.0
20260506111855 68 138 0.0 2.0 0.00 0.00 0.00 81 1008.8
20260506110909 69 133 1.0 2.0 0.00 0.00 0.00 80 1008.6
20260506110437 69 134 0.0 1.0 0.00 0.00 0.00 80 1008.5
20260506105842 70 142 0.0 2.0 0.00 0.00 0.00 81 1008.4
20260506105423 70 143 0.0 2.0 0.00 0.00 0.00 81 1008.4
20260506104359 71 133 0.0 1.0 0.00 0.00 0.00 80 1008.3
20260506103936 71 133 0.0 1.0 0.00 0.00 0.00 80 1008.3
20260506103340 72 133 0.0 1.0 0.00 0.00 0.00 82 1008.1
20260506102915 72 133 0.0 1.0 0.00 0.00 0.00 82 1008.1
20260506101917 74 92 1.0 5.0 0.00 0.00 0.00 87 1008.0
20260506101450 75 115 0.0 3.0 0.00 0.00 0.00 89 1008.0
20260506100901 75 67 0.0 2.0 0.00 0.00 0.00 89 1007.9
20260506100429 75 86 0.0 3.0 0.00 0.00 0.00 89 1007.8
20260506095401 75 66 0.0 5.0 0.00 0.00 0.00 89 1007.7
20260506094405 75 106 0.0 3.0 0.00 0.00 0.00 89 1007.6
20260506093936 75 106 0.0 3.0 0.00 0.00 0.00 89 1007.6
20260506093357 75 76 0.0 6.0 0.00 0.00 0.00 89 1007.6
20260506092928 75 90 0.0 6.0 0.00 0.00 0.00 89 1007.8
20260506092436 75 75 0.0 3.0 0.00 0.00 0.00 89 1007.6
20260506091847 75 83 1.0 5.0 0.00 0.00 0.00 89 1007.7
20260506091413 75 78 1.0 5.0 0.00 0.00 0.00 89 1007.6
20260506090929 75 89 0.0 3.0 0.00 0.00 0.00 89 1007.5
20260506085907 74 51 0.0 2.0 0.00 0.00 0.00 89 1007.6
20260506084906 74 67 0.0 3.0 0.00 0.00 0.00 89 1007.5
20260506083909 74 87 0.0 1.0 0.00 0.00 0.00 89 1007.5
20260506082912 74 82 0.0 3.0 0.00 0.00 0.00 89 1007.4
20260506081904 74 88 0.0 2.0 0.00 0.00 0.00 89 1007.4
20260506080907 74 82 0.0 1.0 0.00 0.00 0.00 89 1007.5
20260506073408 75 92 0.0 0.0 0.00 0.00 0.00 88 1007.4
20260506072929 75 92 0.0 0.0 0.00 0.00 0.00 88 1007.5
20260506072347 75 141 0.0 2.0 0.00 0.00 0.00 88 1007.8
20260506071934 75 71 0.0 2.0 0.00 0.00 0.00 87 1007.6
20260506070907 75 76 0.0 2.0 0.00 0.00 0.00 87 1007.3
20260506062404 75 80 0.0 3.0 0.00 0.00 0.00 88 1007.5
20260506061843 75 93 0.0 3.0 0.00 0.00 0.00 88 1007.5
20260506061344 75 110 0.0 1.0 0.00 0.00 0.00 88 1007.8
20260506060853 75 105 0.0 1.0 0.00 0.00 0.00 87 1007.5
20260506060351 75 103 0.0 0.0 0.00 0.00 0.00 87 1007.5
20260506051353 76 85 0.0 3.0 0.00 0.00 0.00 85 1007.6
20260506050923 76 101 1.0 3.0 0.00 0.00 0.00 86 1007.5
20260506050432 76 109 0.0 3.0 0.00 0.00 0.00 85 1007.3
20260506044916 76 142 0.0 2.0 0.00 0.00 0.00 85 1007.3
20260506043851 76 103 0.0 2.0 0.00 0.00 0.00 85 1007.3
20260506043432 76 119 0.0 2.0 0.00 0.00 0.00 84 1007.2
20260506042415 76 67 0.0 5.0 0.00 0.00 0.00 84 1007.3
20260506041359 76 90 1.0 4.0 0.00 0.00 0.00 85 1007.0
20260506040400 76 59 0.0 1.0 0.00 0.00 0.00 85 1006.6
20260506035355 76 59 0.0 1.0 0.00 0.00 0.00 85 1006.6
20260506034929 76 75 0.0 1.0 0.00 0.00 0.00 85 1006.6
20260506034349 76 75 0.0 0.0 0.00 0.00 0.00 84 1006.5
20260506033413 77 82 0.0 2.0 0.00 0.00 0.00 84 1006.4
20260506032403 77 119 0.0 1.0 0.00 0.00 0.00 84 1006.1
20260506031400 77 98 0.0 0.0 0.00 0.00 0.00 84 1006.0
20260506030931 77 93 0.0 0.0 0.00 0.00 0.00 84 1006.1
20260506030342 77 93 0.0 0.0 0.00 0.00 0.00 84 1006.1
20260506025910 77 93 0.0 0.0 0.00 0.00 0.00 84 1006.0
20260506024916 77 92 0.0 0.0 0.00 0.00 0.00 84 1006.1
20260506023911 77 94 0.0 0.0 0.00 0.00 0.00 84 1005.8
20260506022851 77 94 0.0 0.0 0.00 0.00 0.00 84 1005.7
20260506021849 77 93 0.0 0.0 0.00 0.00 0.00 84 1005.8
20260506021414 77 93 0.0 0.0 0.00 0.00 0.00 84 1005.9
20260506020400 78 93 0.0 0.0 0.00 0.00 0.00 83 1005.8
20260506015353 78 93 0.0 0.0 0.00 0.00 0.00 82 1005.8
20260506014355 78 93 0.0 0.0 0.00 0.00 0.00 81 1005.5
20260506013352 79 93 0.0 0.0 0.00 0.00 0.00 80 1005.6
20260506012917 79 93 0.0 0.0 0.00 0.00 0.00 80 1005.5
20260506011917 79 93 0.0 0.0 0.00 0.00 0.00 79 1005.4
20260506010903 80 93 0.0 0.0 0.00 0.00 0.00 78 1005.2
20260506005845 80 93 0.0 2.0 0.00 0.00 0.00 77 1005.1
20260506005407 80 99 0.0 1.0 0.00 0.00 0.00 77 1005.0
20260506004416 81 70 0.0 0.0 0.00 0.00 0.00 76 1004.7
20260506003951 81 70 0.0 0.0 0.00 0.00 0.00 76 1004.6
20260506003459 81 64 0.0 1.0 0.00 0.00 0.00 75 1004.6
20260506002914 81 64 0.0 8.0 0.00 0.00 0.00 75 1004.6
20260506002441 82 65 0.0 8.0 0.00 0.00 0.00 75 1004.5
20260506001844 82 87 1.0 2.0 0.00 0.00 0.00 74 1004.6
20260506001416 82 61 0.0 2.0 0.00 0.00 0.00 74 1004.6
20260506000934 82 61 0.0 4.0 0.00 0.00 0.00 74 1004.7
20260506000358 83 87 1.0 4.0 0.00 0.00 0.00 73 1004.7
20260505235410 83 259 1.0 2.0 0.00 0.00 0.00 73 1004.6
20260505234406 83 97 0.0 2.0 0.00 0.00 0.00 72 1004.6
20260505233401 83 92 1.0 4.0 0.00 0.00 0.00 71 1004.5
20260505232930 83 77 0.0 3.0 0.00 0.00 0.00 71 1004.5
20260505231902 84 266 0.0 2.0 0.00 0.00 0.00 70 1004.5
20260505231435 84 90 0.0 9.0 0.00 0.00 0.00 71 1004.4
20260505230935 84 74 2.0 9.0 0.00 0.00 0.00 70 1004.5
20260505230343 84 86 1.0 6.0 0.00 0.00 0.00 70 1004.3
20260505225353 85 348 1.0 5.0 0.00 0.00 0.00 69 1004.3
20260505224857 85 83 2.0 7.0 0.00 0.00 0.00 69 1004.3
20260505224434 85 246 1.0 8.0 0.00 0.00 0.00 69 1004.2
20260505222902 85 47 1.0 3.0 0.00 0.00 0.00 68 1004.2
20260505221916 86 112 1.0 4.0 0.00 0.00 0.00 67 1004.0
20260505220921 86 75 1.0 9.0 0.00 0.00 0.00 67 1004.1
20260505215915 87 83 2.0 9.0 0.00 0.00 0.00 67 1004.3
20260505214926 86 82 1.0 5.0 0.00 0.00 0.00 67 1004.5
20260505214353 87 49 1.0 5.0 0.00 0.00 0.00 68 1004.6
20260505213921 86 114 2.0 6.0 0.00 0.00 0.00 67 1004.7
20260505212911 86 94 1.0 5.0 0.00 0.00 0.00 69 1004.8
20260505211851 84 87 1.0 7.0 0.00 0.00 0.00 71 1005.0
20260505211425 84 114 1.0 5.0 0.00 0.00 0.00 70 1004.9
20260505210844 84 98 1.0 8.0 0.00 0.00 0.00 70 1005.0
20260505210414 84 90 2.0 8.0 0.00 0.00 0.00 70 1005.0
20260505205400 83 61 1.0 4.0 0.00 0.00 0.00 72 1005.1
20260505204935 83 63 1.0 6.0 0.00 0.00 0.00 71 1005.1
20260505204356 83 68 1.0 8.0 0.00 0.00 0.00 72 1005.1
20260505203401 83 57 3.0 9.0 0.00 0.00 0.00 70 1005.1
20260505202926 83 68 2.0 8.0 0.00 0.00 0.00 70 1005.2
20260505202405 84 95 2.0 7.0 0.00 0.00 0.00 70 1005.4
20260505201409 83 46 2.0 8.0 0.00 0.00 0.00 70 1005.4
20260505200415 83 153 3.0 11.0 0.00 0.00 0.00 72 1005.5
20260505195411 82 88 1.0 7.0 0.00 0.00 0.00 73 1005.6
20260505194847 82 74 3.0 12.0 0.00 0.00 0.00 71 1005.7
20260505194422 82 105 4.0 12.0 0.00 0.00 0.00 72 1005.7
20260505193842 82 86 1.0 7.0 0.00 0.00 0.00 74 1005.8
20260505193425 82 69 2.0 7.0 0.00 0.00 0.00 74 1005.8
20260505192845 81 107 2.0 11.0 0.00 0.00 0.00 74 1005.8
20260505192423 81 41 4.0 11.0 0.00 0.00 0.00 74 1005.7
20260505191408 81 42 2.0 8.0 0.00 0.00 0.00 74 1005.8
20260505190927 81 90 2.0 8.0 0.00 0.00 0.00 74 1006.0
20260505185908 81 87 1.0 7.0 0.00 0.00 0.00 75 1005.9
20260505185436 81 84 1.0 6.0 0.00 0.00 0.00 75 1005.9
20260505184857 80 56 2.0 4.0 0.00 0.00 0.00 76 1006.0
20260505184433 80 103 1.0 6.0 0.00 0.00 0.00 76 1006.0
20260505183849 80 97 3.0 7.0 0.00 0.00 0.00 75 1006.1
20260505182902 80 101 1.0 12.0 0.00 0.00 0.00 76 1006.1
20260505181900 80 65 3.0 9.0 0.00 0.00 0.00 74 1006.2
20260505180855 79 113 1.0 4.0 0.00 0.00 0.00 77 1006.1
20260505180422 78 308 1.0 7.0 0.00 0.00 0.00 78 1006.2
20260505175422 78 46 2.0 9.0 0.00 0.00 0.00 77 1006.5
20260505174937 78 129 3.0 10.0 0.00 0.00 0.00 76 1006.4
20260505173907 79 88 2.0 6.0 0.00 0.00 0.00 77 1006.4
20260505172924 78 61 2.0 10.0 0.00 0.00 0.00 77 1006.4
20260505171917 78 83 2.0 9.0 0.00 0.00 0.00 77 1006.5
20260505170916 78 46 2.0 11.0 0.00 0.00 0.00 78 1006.5
20260505170445 78 68 2.0 11.0 0.00 0.00 0.00 78 1006.5
20260505165855 78 94 1.0 9.0 0.00 0.00 0.00 80 1006.5
20260505165434 77 96 2.0 9.0 0.00 0.00 0.00 79 1006.5
20260505164858 77 98 0.0 8.0 0.00 0.00 0.00 80 1006.6
20260505164420 77 40 3.0 8.0 0.00 0.00 0.00 79 1006.5
20260505163400 76 91 3.0 9.0 0.00 0.00 0.00 80 1006.7
20260505162930 76 111 2.0 9.0 0.00 0.00 0.00 81 1006.7
20260505162346 76 84 2.0 9.0 0.00 0.00 0.00 80 1006.8
20260505161920 75 74 2.0 8.0 0.00 0.00 0.00 81 1006.7
20260505161423 75 49 3.0 8.0 0.00 0.00 0.00 81 1006.6
20260505160932 75 55 1.0 8.0 0.00 0.00 0.00 82 1006.7
20260505160457 74 27 2.0 13.0 0.00 0.00 0.00 82 1006.6
20260505152901 73 343 2.0 11.0 0.00 0.00 0.00 83 1006.3
20260505151917 73 132 2.0 7.0 0.00 0.00 0.00 83 1006.5
20260505150904 73 36 1.0 10.0 0.00 0.00 0.00 83 1006.6